EFW337 LFMN-EGKK

Flight info

Callsign EFW337
Flight time 1h 31m
Altitude 34000
Route BADOD DCT NEDRU DCT LTP DCT BULOL DCT IDAVO DCT BAGBI DCT SIZZA DCT LAULY DCT BRY DCT CLM DCT KOPOR DCT KESAX DCT KUNAV
Aircraft A321/M-SDE3FGIJ1KRWXY/SB1

Departure

Time 2026-05-08 06:43
Airport Nice-Côte d'Azur Airport (LFMN)

Arrival

Time 2026-05-08 08:15
Airport London Gatwick Airport (EGKK)
Time Latitude Longitude Altitude Speed Heading
2026-05-08 06:21 43.66429 7.21329 21 ft 0 kts 338°
2026-05-08 06:30 43.66428 7.21329 21 ft 0 kts 338°
2026-05-08 06:31 43.66427 7.21330 21 ft 1 kts 339°
2026-05-08 06:31 43.66413 7.21338 21 ft 2 kts 338°
2026-05-08 06:31 43.66398 7.21346 21 ft 2 kts 338°
2026-05-08 06:31 43.66387 7.21352 21 ft 0 kts 338°
2026-05-08 06:32 43.66376 7.21359 21 ft 2 kts 322°
2026-05-08 06:32 43.66366 7.21374 21 ft 2 kts 301°
2026-05-08 06:32 43.66360 7.21393 21 ft 2 kts 280°
2026-05-08 06:32 43.66359 7.21410 21 ft 0 kts 262°
2026-05-08 06:33 43.66360 7.21419 21 ft 1 kts 259°
2026-05-08 06:33 43.66361 7.21420 21 ft 0 kts 259°
2026-05-08 06:35 43.66360 7.21419 21 ft 0 kts 259°
2026-05-08 06:35 43.66357 7.21401 21 ft 1 kts 230°
2026-05-08 06:36 43.66327 7.21380 21 ft 6 kts 205°
2026-05-08 06:36 43.66280 7.21338 21 ft 9 kts 220°
2026-05-08 06:36 43.66225 7.21263 21 ft 12 kts 225°
2026-05-08 06:36 43.66155 7.21167 21 ft 15 kts 225°
2026-05-08 06:37 43.66089 7.21077 21 ft 9 kts 223°
2026-05-08 06:37 43.66029 7.21053 21 ft 9 kts 172°
2026-05-08 06:37 43.65964 7.21085 21 ft 10 kts 146°
2026-05-08 06:37 43.65913 7.21088 21 ft 8 kts 211°
2026-05-08 06:38 43.65866 7.21027 21 ft 11 kts 227°
2026-05-08 06:38 43.65802 7.20937 21 ft 15 kts 223°
2026-05-08 06:38 43.65710 7.20811 21 ft 20 kts 225°
2026-05-08 06:38 43.65606 7.20668 21 ft 20 kts 225°
2026-05-08 06:39 43.65505 7.20529 21 ft 20 kts 224°
2026-05-08 06:39 43.65404 7.20391 21 ft 20 kts 225°
2026-05-08 06:39 43.65344 7.20310 21 ft 6 kts 220°
2026-05-08 06:39 43.65297 7.20294 21 ft 7 kts 182°
2026-05-08 06:40 43.65251 7.20330 21 ft 8 kts 134°
2026-05-08 06:40 43.65207 7.20393 21 ft 9 kts 135°
2026-05-08 06:40 43.65155 7.20460 21 ft 10 kts 137°
2026-05-08 06:40 43.65091 7.20513 21 ft 11 kts 167°
2026-05-08 06:41 43.65013 7.20489 21 ft 12 kts 213°
2026-05-08 06:41 43.64950 7.20407 21 ft 12 kts 225°
2026-05-08 06:41 43.64876 7.20304 21 ft 16 kts 225°
2026-05-08 06:41 43.64805 7.20208 21 ft 10 kts 220°
2026-05-08 06:42 43.64743 7.20189 21 ft 8 kts 163°
2026-05-08 06:42 43.64702 7.20249 21 ft 6 kts 107°
2026-05-08 06:42 43.64712 7.20302 21 ft 4 kts 50°
2026-05-08 06:42 43.64729 7.20325 21 ft 8 kts 44°
2026-05-08 06:43 43.64927 7.20598 21 ft 80 kts 44°
2026-05-08 06:43 43.65499 7.21386 21 ft 150 kts 45°
2026-05-08 06:43 43.66324 7.22530 411 ft 175 kts 42°
2026-05-08 06:43 43.67022 7.23859 1173 ft 179 kts 70°
2026-05-08 06:44 43.66936 7.25579 1635 ft 190 kts 115°
2026-05-08 06:44 43.66013 7.26964 1873 ft 207 kts 142°
2026-05-08 06:44 43.64802 7.28179 2218 ft 221 kts 143°
2026-05-08 06:44 43.63572 7.29474 2705 ft 229 kts 140°
2026-05-08 06:45 43.62365 7.30874 3468 ft 225 kts 141°
2026-05-08 06:45 43.60986 7.31808 4113 ft 226 kts 173°
2026-05-08 06:45 43.59470 7.31501 4704 ft 228 kts 206°
2026-05-08 06:45 43.58105 7.30372 5335 ft 230 kts 213°
2026-05-08 06:46 43.56769 7.29148 5948 ft 233 kts 213°
2026-05-08 06:46 43.55466 7.27846 6560 ft 235 kts 227°
2026-05-08 06:46 43.54701 7.25915 7157 ft 235 kts 261°
2026-05-08 06:46 43.54831 7.23710 7761 ft 235 kts 294°
2026-05-08 06:47 43.55712 7.21831 8364 ft 236 kts 309°
2026-05-08 06:47 43.56765 7.20071 8949 ft 240 kts 310°
2026-05-08 06:47 43.57823 7.18305 9522 ft 243 kts 309°
2026-05-08 06:47 43.58882 7.16499 10089 ft 245 kts 309°
2026-05-08 06:48 43.59948 7.14649 10636 ft 248 kts 308°
2026-05-08 06:48 43.61067 7.12863 11169 ft 251 kts 314°
2026-05-08 06:48 43.62367 7.11198 11558 ft 261 kts 319°
2026-05-08 06:48 43.63804 7.09544 11831 ft 276 kts 320°
2026-05-08 06:49 43.65317 7.07835 12108 ft 291 kts 320°
2026-05-08 06:49 43.66932 7.06009 12386 ft 306 kts 320°
2026-05-08 06:49 43.68601 7.04115 12655 ft 321 kts 320°
2026-05-08 06:49 43.70369 7.02103 12922 ft 336 kts 320°
2026-05-08 06:50 43.72220 6.99989 13182 ft 351 kts 320°
2026-05-08 06:50 43.74106 6.97834 13485 ft 363 kts 320°
2026-05-08 06:50 43.76067 6.95590 14029 ft 367 kts 319°
2026-05-08 06:50 43.78021 6.93348 14624 ft 369 kts 319°
2026-05-08 06:51 43.80012 6.91060 15210 ft 372 kts 319°
2026-05-08 06:51 43.81981 6.88795 15764 ft 374 kts 319°
2026-05-08 06:51 43.83975 6.86498 16309 ft 377 kts 319°
2026-05-08 06:51 43.86001 6.84162 16852 ft 380 kts 319°
2026-05-08 06:52 43.88044 6.81806 17381 ft 382 kts 319°
2026-05-08 06:52 43.90078 6.79458 17897 ft 385 kts 319°
2026-05-08 06:52 43.92139 6.77102 18399 ft 388 kts 320°
2026-05-08 06:52 43.94318 6.74852 18901 ft 391 kts 323°
2026-05-08 06:53 43.96590 6.72809 19389 ft 394 kts 327°
2026-05-08 06:53 43.98952 6.70885 19867 ft 396 kts 328°
2026-05-08 06:53 44.01342 6.68980 20339 ft 398 kts 328°
2026-05-08 06:53 44.03737 6.67074 20815 ft 400 kts 328°
2026-05-08 06:54 44.06139 6.65154 21268 ft 402 kts 328°
2026-05-08 06:54 44.08563 6.63209 21704 ft 404 kts 327°
2026-05-08 06:54 44.11006 6.61244 22129 ft 406 kts 327°
2026-05-08 06:54 44.13449 6.59277 22539 ft 408 kts 327°
2026-05-08 06:55 44.15900 6.57300 22945 ft 410 kts 327°
2026-05-08 06:55 44.18325 6.55342 23335 ft 411 kts 327°
2026-05-08 06:55 44.20822 6.53325 23720 ft 413 kts 327°
2026-05-08 06:55 44.23316 6.51309 24092 ft 415 kts 327°
2026-05-08 06:56 44.25781 6.49315 24434 ft 417 kts 327°
2026-05-08 06:56 44.28316 6.47261 24756 ft 420 kts 327°
2026-05-08 06:56 44.30847 6.45208 25062 ft 423 kts 326°
2026-05-08 06:56 44.33385 6.43146 25355 ft 426 kts 326°
2026-05-08 06:57 44.35938 6.41070 25646 ft 428 kts 326°
2026-05-08 06:57 44.38495 6.38989 25941 ft 431 kts 326°
2026-05-08 06:57 44.41095 6.36870 26227 ft 433 kts 326°
2026-05-08 06:57 44.43689 6.34754 26505 ft 436 kts 325°
2026-05-08 06:58 44.46317 6.32609 26794 ft 438 kts 325°
2026-05-08 06:58 44.48964 6.30444 27074 ft 441 kts 325°
2026-05-08 06:58 44.51583 6.28301 27337 ft 443 kts 325°
2026-05-08 06:58 44.54251 6.26116 27592 ft 446 kts 325°
2026-05-08 06:59 44.56923 6.23924 27843 ft 448 kts 325°
2026-05-08 06:59 44.59618 6.21711 28090 ft 451 kts 325°
2026-05-08 06:59 44.62334 6.19479 28334 ft 453 kts 325°
2026-05-08 06:59 44.65057 6.17237 28602 ft 455 kts 325°
2026-05-08 07:00 44.67769 6.15004 28937 ft 454 kts 324°
2026-05-08 07:00 44.70478 6.12772 29274 ft 454 kts 324°
2026-05-08 07:00 44.73185 6.10539 29587 ft 454 kts 324°
2026-05-08 07:00 44.75913 6.08285 29892 ft 454 kts 324°
2026-05-08 07:01 44.78607 6.06056 30200 ft 454 kts 324°
2026-05-08 07:01 44.81347 6.03787 30524 ft 453 kts 324°
2026-05-08 07:01 44.84032 6.01560 30850 ft 452 kts 324°
2026-05-08 07:01 44.86722 5.99325 31182 ft 451 kts 324°
2026-05-08 07:02 44.89426 5.97075 31488 ft 450 kts 324°
2026-05-08 07:02 44.92106 5.94846 31782 ft 450 kts 324°
2026-05-08 07:02 44.94790 5.92610 32078 ft 449 kts 324°
2026-05-08 07:02 44.97447 5.90395 32373 ft 448 kts 324°
2026-05-08 07:03 45.00139 5.88147 32626 ft 448 kts 324°
2026-05-08 07:03 45.02818 5.85907 32850 ft 449 kts 324°
2026-05-08 07:03 45.05477 5.83680 33072 ft 449 kts 324°
2026-05-08 07:03 45.08150 5.81398 33293 ft 449 kts 323°
2026-05-08 07:04 45.10760 5.79049 33509 ft 448 kts 322°
2026-05-08 07:04 45.13381 5.76652 33700 ft 449 kts 322°
2026-05-08 07:04 45.15998 5.74248 33898 ft 449 kts 322°
2026-05-08 07:04 45.18613 5.71846 34004 ft 450 kts 322°
2026-05-08 07:05 45.23835 5.67047 34010 ft 450 kts 322°
2026-05-08 07:05 45.29069 5.62235 34010 ft 450 kts 322°
2026-05-08 07:06 45.34313 5.57402 34010 ft 450 kts 322°
2026-05-08 07:06 45.39523 5.52591 34010 ft 449 kts 322°
2026-05-08 07:07 45.44754 5.47746 34010 ft 449 kts 322°
2026-05-08 07:07 45.50177 5.43253 34011 ft 453 kts 329°
2026-05-08 07:08 45.55883 5.39537 34017 ft 455 kts 332°
2026-05-08 07:08 45.61709 5.35959 34025 ft 455 kts 333°
2026-05-08 07:09 45.67474 5.32402 34033 ft 455 kts 332°
2026-05-08 07:09 45.73249 5.28815 34035 ft 455 kts 332°
2026-05-08 07:10 45.79029 5.25214 34036 ft 455 kts 332°
2026-05-08 07:10 45.84812 5.21602 34037 ft 455 kts 332°
2026-05-08 07:11 45.90628 5.17959 34036 ft 455 kts 332°
2026-05-08 07:11 45.96409 5.14332 34037 ft 456 kts 332°
2026-05-08 07:12 46.02198 5.10685 34038 ft 455 kts 332°
2026-05-08 07:12 46.07964 5.07043 34037 ft 454 kts 332°
2026-05-08 07:13 46.13715 5.03387 34036 ft 454 kts 332°
2026-05-08 07:13 46.19480 4.99710 34037 ft 455 kts 332°
2026-05-08 07:14 46.25256 4.96019 34036 ft 455 kts 333°
2026-05-08 07:14 46.31009 4.92339 34037 ft 455 kts 333°
2026-05-08 07:15 46.36761 4.88647 34037 ft 455 kts 333°
2026-05-08 07:15 46.42551 4.84924 34037 ft 455 kts 333°
2026-05-08 07:16 46.48279 4.81230 34037 ft 455 kts 333°
2026-05-08 07:16 46.54040 4.77504 34037 ft 455 kts 333°
2026-05-08 07:17 46.59819 4.73760 34037 ft 455 kts 333°
2026-05-08 07:17 46.65579 4.70020 34036 ft 455 kts 333°
2026-05-08 07:18 46.71354 4.66260 34037 ft 455 kts 333°
2026-05-08 07:18 46.77095 4.62512 34037 ft 455 kts 333°
2026-05-08 07:19 46.82865 4.58741 34037 ft 455 kts 333°
2026-05-08 07:19 46.88638 4.54994 34036 ft 455 kts 333°
2026-05-08 07:20 46.94374 4.51265 34036 ft 455 kts 333°
2026-05-08 07:20 47.00158 4.47492 34036 ft 455 kts 333°
2026-05-08 07:21 47.05912 4.43728 34036 ft 455 kts 333°
2026-05-08 07:21 47.11683 4.39943 34036 ft 455 kts 333°
2026-05-08 07:22 47.17445 4.36157 34037 ft 455 kts 333°
2026-05-08 07:22 47.23178 4.32379 34037 ft 454 kts 332°
2026-05-08 07:23 47.28916 4.28590 34037 ft 454 kts 332°
2026-05-08 07:23 47.34665 4.24782 34037 ft 454 kts 332°
2026-05-08 07:24 47.40394 4.20979 34037 ft 454 kts 332°
2026-05-08 07:24 47.46153 4.17147 34042 ft 454 kts 332°
2026-05-08 07:25 47.51860 4.13339 34049 ft 454 kts 332°
2026-05-08 07:26 47.60477 4.07587 34059 ft 454 kts 332°
2026-05-08 07:26 47.66227 4.03742 34061 ft 454 kts 332°
2026-05-08 07:27 47.71931 3.99917 34060 ft 454 kts 332°
2026-05-08 07:27 47.77661 3.96063 34058 ft 454 kts 332°
2026-05-08 07:28 47.83395 3.92198 34054 ft 454 kts 332°
2026-05-08 07:28 47.89112 3.88334 34050 ft 453 kts 332°
2026-05-08 07:29 47.94857 3.84441 34050 ft 453 kts 332°
2026-05-08 07:29 48.00558 3.80568 34053 ft 453 kts 332°
2026-05-08 07:30 48.06283 3.76669 34058 ft 453 kts 332°
2026-05-08 07:30 48.11828 3.72389 34060 ft 450 kts 326°
2026-05-08 07:31 48.16944 3.67080 34063 ft 447 kts 318°
2026-05-08 07:31 48.21513 3.60845 34063 ft 443 kts 310°
2026-05-08 07:32 48.25669 3.54116 34064 ft 443 kts 309°
2026-05-08 07:32 48.29821 3.47300 34063 ft 443 kts 309°
2026-05-08 07:33 48.33984 3.40493 34063 ft 443 kts 309°
2026-05-08 07:33 48.38406 3.34074 34064 ft 447 kts 316°
2026-05-08 07:34 48.43435 3.28555 34063 ft 450 kts 324°
2026-05-08 07:34 48.48972 3.24133 34063 ft 454 kts 333°
2026-05-08 07:35 48.54763 3.20421 34063 ft 455 kts 334°
2026-05-08 07:35 48.60580 3.16745 34063 ft 455 kts 334°
2026-05-08 07:36 48.66369 3.13049 34063 ft 455 kts 334°
2026-05-08 07:36 48.72200 3.09304 34063 ft 455 kts 334°
2026-05-08 07:37 48.78009 3.05560 34063 ft 455 kts 334°
2026-05-08 07:37 48.83764 3.01750 34063 ft 454 kts 331°
2026-05-08 07:38 48.89279 2.97244 34063 ft 451 kts 327°
2026-05-08 07:38 48.94715 2.92469 34063 ft 451 kts 327°
2026-05-08 07:39 49.00106 2.87723 34063 ft 451 kts 327°
2026-05-08 07:39 49.05519 2.82962 34063 ft 451 kts 327°
2026-05-08 07:40 49.10947 2.78180 34062 ft 451 kts 327°
2026-05-08 07:40 49.16345 2.73414 34063 ft 451 kts 327°
2026-05-08 07:41 49.21772 2.68609 34063 ft 451 kts 327°
2026-05-08 07:41 49.27185 2.63803 34063 ft 451 kts 327°
2026-05-08 07:42 49.32572 2.59010 34063 ft 450 kts 327°
2026-05-08 07:42 49.37981 2.54185 34063 ft 450 kts 327°
2026-05-08 07:43 49.43380 2.49354 34063 ft 450 kts 327°
2026-05-08 07:43 49.48754 2.44474 34063 ft 449 kts 325°
2026-05-08 07:44 49.53813 2.38939 34063 ft 446 kts 318°
2026-05-08 07:44 49.58530 2.32780 34064 ft 445 kts 316°
2026-05-08 07:45 49.63197 2.26546 34063 ft 445 kts 316°
2026-05-08 07:45 49.67870 2.20303 34063 ft 445 kts 316°
2026-05-08 07:46 49.72514 2.14095 34063 ft 445 kts 316°
2026-05-08 07:46 49.77188 2.07835 34063 ft 446 kts 316°
2026-05-08 07:47 49.81869 2.01551 34064 ft 446 kts 316°
2026-05-08 07:47 49.86526 1.95282 34068 ft 446 kts 316°
2026-05-08 07:47 49.88849 1.92149 33956 ft 447 kts 316°
2026-05-08 07:48 49.91213 1.88954 33583 ft 450 kts 316°
2026-05-08 07:48 49.93562 1.85777 33071 ft 452 kts 316°
2026-05-08 07:48 49.95910 1.82596 32437 ft 452 kts 316°
2026-05-08 07:48 49.98254 1.79416 31746 ft 453 kts 316°
2026-05-08 07:49 50.00639 1.76177 31011 ft 454 kts 316°
2026-05-08 07:49 50.02995 1.72971 30263 ft 455 kts 316°
2026-05-08 07:49 50.05353 1.69760 29501 ft 456 kts 316°
2026-05-08 07:49 50.07738 1.66508 28750 ft 456 kts 316°
2026-05-08 07:50 50.10120 1.63282 28216 ft 451 kts 316°
2026-05-08 07:50 50.12463 1.60110 27695 ft 446 kts 317°
2026-05-08 07:50 50.14771 1.56983 27177 ft 441 kts 316°
2026-05-08 07:50 50.17062 1.53873 26658 ft 436 kts 316°
2026-05-08 07:51 50.19337 1.50779 26138 ft 432 kts 317°
2026-05-08 07:51 50.21563 1.47746 25627 ft 427 kts 316°
2026-05-08 07:51 50.23789 1.44708 25112 ft 423 kts 316°
2026-05-08 07:51 50.25992 1.41698 24601 ft 419 kts 317°
2026-05-08 07:52 50.28165 1.38723 24094 ft 415 kts 317°
2026-05-08 07:52 50.30311 1.35784 23593 ft 412 kts 317°
2026-05-08 07:52 50.32447 1.32854 23095 ft 408 kts 316°
2026-05-08 07:52 50.34567 1.29941 22601 ft 404 kts 316°
2026-05-08 07:53 50.36651 1.27076 22111 ft 401 kts 316°
2026-05-08 07:53 50.38751 1.24184 21616 ft 398 kts 316°
2026-05-08 07:53 50.40816 1.21336 21125 ft 396 kts 316°
2026-05-08 07:53 50.42862 1.18512 20638 ft 393 kts 316°
2026-05-08 07:54 50.44900 1.15696 20148 ft 391 kts 316°
2026-05-08 07:54 50.46925 1.12892 19661 ft 388 kts 316°
2026-05-08 07:54 50.48938 1.10103 19175 ft 386 kts 316°
2026-05-08 07:54 50.50921 1.07317 18692 ft 384 kts 315°
2026-05-08 07:55 50.52803 1.04375 18198 ft 381 kts 311°
2026-05-08 07:55 50.54612 1.01359 17708 ft 379 kts 311°
2026-05-08 07:55 50.56398 0.98339 17224 ft 376 kts 311°
2026-05-08 07:55 50.58151 0.95371 16949 ft 367 kts 311°
2026-05-08 07:56 50.59848 0.92498 16789 ft 356 kts 311°
2026-05-08 07:56 50.61509 0.89687 16640 ft 344 kts 310°
2026-05-08 07:56 50.63101 0.86995 16488 ft 334 kts 310°
2026-05-08 07:56 50.64649 0.84371 16340 ft 323 kts 310°
2026-05-08 07:57 50.66158 0.81812 16197 ft 313 kts 310°
2026-05-08 07:57 50.67611 0.79287 16061 ft 311 kts 308°
2026-05-08 07:57 50.68982 0.76665 15684 ft 314 kts 307°
2026-05-08 07:57 50.70345 0.73988 15347 ft 311 kts 306°
2026-05-08 07:58 50.71689 0.71344 14990 ft 309 kts 306°
2026-05-08 07:58 50.73019 0.68729 14582 ft 304 kts 307°
2026-05-08 07:58 50.74344 0.66124 14021 ft 303 kts 307°
2026-05-08 07:58 50.75659 0.63538 13441 ft 303 kts 307°
2026-05-08 07:59 50.76969 0.60963 12945 ft 302 kts 307°
2026-05-08 07:59 50.78266 0.58412 12649 ft 298 kts 307°
2026-05-08 07:59 50.79549 0.55884 12286 ft 296 kts 307°
2026-05-08 07:59 50.80838 0.53346 11858 ft 294 kts 307°
2026-05-08 08:00 50.82094 0.50867 11434 ft 292 kts 307°
2026-05-08 08:00 50.83362 0.48363 11003 ft 290 kts 307°
2026-05-08 08:00 50.84625 0.45869 10519 ft 291 kts 308°
2026-05-08 08:00 50.85888 0.43370 10117 ft 288 kts 308°
2026-05-08 08:01 50.87113 0.40947 9763 ft 284 kts 308°
2026-05-08 08:01 50.88347 0.38505 9360 ft 282 kts 308°
2026-05-08 08:01 50.89558 0.36103 8944 ft 280 kts 309°
2026-05-08 08:01 50.90774 0.33689 8528 ft 279 kts 308°
2026-05-08 08:02 50.91981 0.31294 8114 ft 278 kts 308°
2026-05-08 08:02 50.93173 0.28929 7705 ft 276 kts 308°
2026-05-08 08:02 50.94363 0.26561 7291 ft 275 kts 308°
2026-05-08 08:02 50.95547 0.24187 6886 ft 274 kts 307°
2026-05-08 08:03 50.96710 0.21831 6488 ft 272 kts 307°
2026-05-08 08:03 50.97876 0.19468 6080 ft 271 kts 307°
2026-05-08 08:03 50.99028 0.17129 5684 ft 269 kts 307°
2026-05-08 08:03 51.00177 0.14796 5215 ft 268 kts 307°
2026-05-08 08:04 51.01293 0.12443 4720 ft 268 kts 300°
2026-05-08 08:04 51.01889 0.09666 4219 ft 268 kts 275°
2026-05-08 08:04 51.02034 0.06746 3994 ft 264 kts 271°
2026-05-08 08:04 51.02128 0.03833 3990 ft 265 kts 271°
2026-05-08 08:05 51.02225 0.00891 3990 ft 266 kts 271°
2026-05-08 08:05 51.02335 -0.02020 3989 ft 267 kts 271°
2026-05-08 08:05 51.02452 -0.04987 3989 ft 267 kts 271°
2026-05-08 08:05 51.02569 -0.07901 3988 ft 267 kts 271°
2026-05-08 08:06 51.02690 -0.10865 3986 ft 267 kts 271°
2026-05-08 08:06 51.02810 -0.13779 3983 ft 267 kts 271°
2026-05-08 08:06 51.02933 -0.16729 3947 ft 265 kts 271°
2026-05-08 08:06 51.03053 -0.19641 3754 ft 266 kts 271°
2026-05-08 08:07 51.03173 -0.22560 3554 ft 265 kts 271°
2026-05-08 08:07 51.03294 -0.25498 3353 ft 265 kts 271°
2026-05-08 08:07 51.03413 -0.28411 3152 ft 265 kts 271°
2026-05-08 08:07 51.03531 -0.31341 2986 ft 264 kts 271°
2026-05-08 08:08 51.03648 -0.34254 2969 ft 264 kts 271°
2026-05-08 08:08 51.03764 -0.37158 2965 ft 265 kts 271°
2026-05-08 08:08 51.03880 -0.40085 2964 ft 265 kts 271°
2026-05-08 08:08 51.03995 -0.42977 2963 ft 265 kts 271°
2026-05-08 08:09 51.04110 -0.45908 2959 ft 258 kts 271°
2026-05-08 08:09 51.04221 -0.48662 2956 ft 245 kts 272°
2026-05-08 08:09 51.04668 -0.51205 2924 ft 241 kts 304°
2026-05-08 08:09 51.05964 -0.52813 2942 ft 241 kts 345°
2026-05-08 08:10 51.07585 -0.52839 2957 ft 236 kts 22°
2026-05-08 08:10 51.09010 -0.51565 2982 ft 233 kts 39°
2026-05-08 08:10 51.10212 -0.49932 2951 ft 222 kts 60°
2026-05-08 08:10 51.10833 -0.47807 2977 ft 200 kts 78°
2026-05-08 08:11 51.11169 -0.45788 3025 ft 183 kts 81°
2026-05-08 08:11 51.11443 -0.43834 2985 ft 181 kts 83°
2026-05-08 08:11 51.11699 -0.41899 2844 ft 173 kts 83°
2026-05-08 08:11 51.11943 -0.40068 2615 ft 169 kts 82°
2026-05-08 08:12 51.12188 -0.38240 2391 ft 169 kts 82°
2026-05-08 08:12 51.12431 -0.36446 2171 ft 161 kts 82°
2026-05-08 08:12 51.12664 -0.34733 1980 ft 158 kts 81°
2026-05-08 08:12 51.12896 -0.33023 1761 ft 157 kts 81°
2026-05-08 08:13 51.13125 -0.31346 1546 ft 150 kts 79°
2026-05-08 08:13 51.13336 -0.29802 1335 ft 140 kts 78°
2026-05-08 08:13 51.13541 -0.28301 1160 ft 139 kts 78°
2026-05-08 08:13 51.13746 -0.26796 985 ft 139 kts 78°
2026-05-08 08:14 51.13952 -0.25300 805 ft 138 kts 78°
2026-05-08 08:14 51.14156 -0.23809 622 ft 138 kts 78°
2026-05-08 08:14 51.14359 -0.22328 438 ft 137 kts 78°
2026-05-08 08:14 51.14565 -0.20833 254 ft 137 kts 78°
2026-05-08 08:15 51.14760 -0.19416 198 ft 115 kts 78°
2026-05-08 08:15 51.14891 -0.18466 198 ft 51 kts 77°
2026-05-08 08:15 51.14938 -0.18117 198 ft 25 kts 76°
2026-05-08 08:15 51.15007 -0.17901 198 ft 20 kts 55°
2026-05-08 08:16 51.15070 -0.17775 198 ft 9 kts 35°
2026-05-08 08:16 51.15135 -0.17764 198 ft 10 kts 358°
2026-05-08 08:16 51.15208 -0.17776 198 ft 10 kts 353°
2026-05-08 08:16 51.15255 -0.17735 198 ft 8 kts 66°
2026-05-08 08:17 51.15271 -0.17633 198 ft 9 kts 79°
2026-05-08 08:17 51.15285 -0.17522 198 ft 10 kts 78°
2026-05-08 08:17 51.15303 -0.17403 198 ft 9 kts 71°
2026-05-08 08:17 51.15351 -0.17344 198 ft 9 kts 51°
2026-05-08 08:18 51.15377 -0.17240 198 ft 10 kts 71°
2026-05-08 08:18 51.15406 -0.17129 198 ft 9 kts 68°
2026-05-08 08:18 51.15427 -0.17083 198 ft 5 kts 20°
2026-05-08 08:18 51.15461 -0.17087 198 ft 2 kts 349°